Regional Weather Roundup
Issued by NWS

Home | Current Version | Previous Version | Graphics & Text | Print | Product List | Glossary Off
Versions: 1 2 3 4 5 6 7 8 9 10 11 12 13 14 15 16 17 18 19 20 21 22 23 24 25 26 27 28 29 30 31 32 33 34 35 36 37 38 39 40 41 42 43 44 45 46 47 48 49 50

000
ASUS43 KMPX 272110
RWRMN
WEATHER ROUNDUP FOR MINNESOTA
NATIONAL WEATHER SERVICE TWIN CITIES/CHANHASSEN MN
400 PM CDT FRI MAY 27 2016


NOTE: "FAIR" INDICATES FEW OR NO CLOUDS BELOW 12,000 FEET WITH NO
SIGNIFICANT WEATHER AND/OR OBSTRUCTIONS TO VISIBILITY. N/A MEANS
CURRENT SKY AND/OR WEATHER CONDITIONS ARE NOT AVAILABLE.

MNZ060>063-068>070-272200-
   Twin Cities Metro

CITY           SKY/WX    TMP DP  RH WIND       PRES   REMARKS
TWIN CITIES    CLOUDY    65  61  87 N8        29.77F
ST PAUL        LGT RAIN  65  62  90 NW7       29.77F
CRYSTAL        CLOUDY    64  59  83 N5        29.77F
BLAINE         DRIZZLE   64  63  94 N6        29.78F
EDEN PRAIRIE   LGT RAIN  65  60  84 N5        29.77F
SOUTH ST PAUL  LGT RAIN  65  62  90 N6        29.76F
LAKE ELMO      CLOUDY    66  64  94 N5        29.77F
$$
MNZ001>005-007-008-013>017-022>024-027-028-272200-
   Northwest Minnesota

CITY           SKY/WX    TMP DP  RH WIND       PRES   REMARKS
BEMIDJI        CLOUDY    62  55  79 SE22      29.83S
HALLOCK        MOSUNNY   72  52  49 NW5       29.78S
ROSEAU         CLOUDY    72  61  68 E12       29.79R
WARROAD        CLOUDY    64  59  82 E14       29.82R
THIEF RVR FALL PTSUNNY   70  57  64 SE15      29.78F
CROOKSTON      MOSUNNY   73  59  60 N12       29.77S
FOSSTON        CLOUDY    70  57  64 E12G17    29.79R
DETROIT LAKES  CLOUDY    70  57  64 SE13      29.78S
MOORHEAD       LGT RAIN  64  61  88 W3        29.76F
PARK RAPIDS    CLOUDY    68  58  70 E15G23    29.80F
MAHNOMEN       FAIR      71  57  61 SE15      29.76S
$$
MNZ006-009>011-018-025>026-272200-
   North Central Minnesota

CITY           SKY/WX    TMP DP  RH WIND       PRES   REMARKS
BAUDETTE       CLOUDY    68  55  63 S13       29.83R
FLAG ISLAND    PTSUNNY   68  55  64 SE3       29.81R HAZE
INTL FALLS     CLOUDY    65  55  70 VRB7      29.85F
WASKISH        CLOUDY    66  57  72 SE16      29.84S
BIG FORK       LGT RAIN  61  57  88 SE6       29.89S
LONGVILLE      RAIN      59  57  94 CALM      29.86F
GRAND RAPIDS   LGT RAIN  60  58  92 N6        29.89F
CRANE LAKE     DRIZZLE   61  55  82 S8        29.91S
ORR            LGT RAIN  59  54  82 S5        29.89S
COOK           LGT RAIN  59  57  94 CALM      29.90F
WALKER         CLOUDY    59  56  89 E9G16     29.84F
$$
MNZ012-019>021-037-272200-
   Northeast Minnesota

CITY           SKY/WX    TMP DP  RH WIND       PRES   REMARKS
DULUTH         LGT RAIN  50  49  96 N3        29.86F FOG
ELY            LGT RAIN  61  57  88 CALM      29.90F
HIBBING        LGT RAIN  60  57  89 E6        29.88F
EVELETH        LGT RAIN  59  55  88 NE5       29.90S
DULUTH HARBOR  LGT RAIN  45  43  93 N7        29.90F
TWO HARBORS    CLOUDY    61  55  82 SE5       29.85F
SILVER BAY     DRIZZLE   55  52  88 CALM      29.87F
GRAND MARAIS     N/A     45  43  93 VRB7      29.92S
G MARAIS ARPRT RAIN      61  54  77 N7        29.93F
$$
MNZ029>031-032-039>041-046>048-054>057-064-272200-
   West Central Minnesota

CITY           SKY/WX    TMP DP  RH WIND       PRES   REMARKS
FERGUS FALLS   CLOUDY    70  59  68 SE8       29.72F
WHEATON        CLOUDY    72  61  68 S6        29.77S
MORRIS         LGT RAIN  66  63  88 NE5       29.76S
ALEXANDRIA     LGT RAIN  65  61  87 E5        29.79S FOG
ELBOW LAKE     FAIR      66  62  85 SE8       29.76F
WADENA         MOSUNNY   66  59  77 SE16      29.79R
GLENWOOD       CLOUDY    70  59  68 NW3       29.79R
APPLETON       CLOUDY    75  57  53 E5        29.74F
BENSON         CLOUDY    66  61  82 N2        29.77S
ORTONVILLE     CLOUDY    64  61  88 S3        29.77R
MADISON        CLOUDY    70  57  64 W8        29.76S
WILLMAR        FAIR      72  61  68 SE14G20   29.77S
$$
MNZ033>034-036-042>043-049>051-058-059-272200-
   Central Minnesota

CITY           SKY/WX    TMP DP  RH WIND       PRES   REMARKS
ST CLOUD       LGT RAIN  61  60  97 E7        29.80S VSB 1
SAUK CENTRE    CLOUDY    66  60  82 E15       29.80R
PAYNESVILLE    LGT RAIN  63  62  98 E9        29.80R
AITKIN         MIX PCPN  64  59  82 N7        29.83F
PINE RIVER     LGT RAIN  61  61 100 E8        29.88S
BRAINERD       LGT RAIN  61  59  93 E6        29.83F
STAPLES        RAIN      63  61  94 E6        29.82R
LONG PRAIRIE   CLOUDY    63  59  88 NE8       29.81R
LITTLE FALLS   CLOUDY    61  55  82 E5        29.82S
LITCHFIELD     CLOUDY    66  64  94 NE8       29.79S
BUFFALO        CLOUDY    62  59  90 NE8       29.80F FOG
MAPLE LAKE     LGT RAIN  62  60  94 E8        29.81S
HUTCHINSON     CLOUDY    67  64  89 SE10      29.79S
$$
MNZ037-044-045-052-053-272200-
   East Central Minnesota

CITY           SKY/WX    TMP DP  RH WIND       PRES   REMARKS
PRINCETON      DRIZZLE   63  59  88 N3        29.81S
MORA           LGT RAIN  61  59  94 CALM      29.82F
CAMBRIDGE      LGT RAIN  64  55  72 N5        29.78F
RUSH CITY      LGT RAIN  64  62  93 N5        29.80F
MOOSE LAKE     LGT RAIN  55  54  94 NE5       29.84S
HINCKLEY       LGT RAIN  61  61 100 NE8       29.82S
CLOQUET        LGT RAIN  52  50  93 E5        29.87S
MCGREGOR       CLOUDY    63  59  88 NE7       29.85F
$$
MNZ071>073-080-081-089-090-097-098-272200-
   Southwest Minnesota

CITY           SKY/WX    TMP DP  RH WIND       PRES   REMARKS
MONTEVIDEO     DRIZZLE   66  61  82 E5        29.78S
GRANITE FALLS  CLOUDY    72  59  63 NW5       29.77S
CANBY          PTSUNNY   74  59  58 SW7       29.77F
MARSHALL       CLOUDY    73  57  57 N9        29.76S
REDWOOD FALLS  RAIN      66  61  84 E3        29.76R
OLIVIA         LGT RAIN  63  59  88 E3        29.76F
PIPESTONE      MOSUNNY   70  57  64 N8        29.78F
WINDOM         CLOUDY    72  57  60 CALM      29.77F
WORTHINGTON    PTSUNNY   72  59  63 NW9       29.77F
JACKSON        MOSUNNY   72  55  56 SW7       29.77F
TRACY          CLOUDY    72  56  58 CALM      29.77S
SLAYTON        CLOUDY    71  52  52 SW5       29.78F
$$
MNZ065>067-074>077-082>085-091>093-272200-
   South Central Minnesota

CITY           SKY/WX    TMP DP  RH WIND       PRES   REMARKS
MANKATO        CLOUDY    68  61  77 SE7       29.77S
NEW ULM        PTSUNNY   66  63  88 CALM      29.77S
ST JAMES       PTSUNNY   66  55  68 CALM      29.77S
FAIRMONT       CLOUDY    72  57  60 SE6       29.75F
GLENCOE        RAIN      64  64  97 E7        29.78S
FARIBAULT      CLOUDY    64  63  94 N2        29.78R
OWATONNA       CLOUDY    66  61  82 NW3       29.77S
WASECA         CLOUDY    64  59  82 CALM      29.79S
ALBERT LEA     CLOUDY    68  63  83 CALM      29.77S
$$
MNZ078>079-086>088-094>096-272200-
   Southeast Minnesota

CITY           SKY/WX    TMP DP  RH WIND       PRES   REMARKS
ROCHESTER      CLOUDY    68  66  93 S6        29.76S
RED WING       CLOUDY    68  64  88 CALM      29.73F
STANTON        CLOUDY    66  62  85 N6        29.75S
DODGE CENTER   CLOUDY    66  66 100 CALM      29.76S
WINONA         CLOUDY    73  63  68 SE15      29.73F
AUSTIN         CLOUDY    68  63  83 CALM      29.76R
PRESTON        PTSUNNY   69  65  87 S12         N/A
$$
ABBREVIATIONS USED IN REMARKS
   TC - TEMPERATURES IN CELSIUS
  WCI - WIND CHILL INDEX
   HX - HEAT INDEX
  VSB - VISIBILITY
$$




USA.gov is the U.S. government's official web portal to all federal, state and local government web resources and services.